When you browse on this site, cookies collect data to enhance your experience and personalize the content and advertising you see.
Visit our Privacy Policy to learn more. By continuing to use the site, you agree to this use of cookies and data.
  • In Switzerland
  • List of Countries
  • For 7 days
  • Water Temperature
  • Satellite Maps
  • Weather Map
  • Weather Widgets
  • user-avatar
    Login

    Hourly Weather Linz

    Today, 24 May, Friday

    Time Temperature Precipitation Wind Pressure Humidity
    00:00 +10°C° 0 mm 1 mps 734 mmHg 87%
    01:00 +10°C° 0 mm 1 mps 734 mmHg 86%
    02:00 +10°C° 0 mm 1 mps 734 mmHg 87%
    03:00 +9°C° 0 mm 1 mps 734 mmHg 87%
    04:00 +9°C° 0 mm 1 mps 734 mmHg 88%
    05:00 +10°C° 0 mm 0 mps 733 mmHg 83%
    06:00 +11°C° 0 mm 0 mps 733 mmHg 79%
    07:00 +14°C° 0 mm 0 mps 733 mmHg 74%
    08:00 +15°C° 0 mm 0 mps 733 mmHg 70%
    09:00 +17°C° 0 mm 0 mps 733 mmHg 65%
    10:00 +20°C° 0 mm 1 mps 732 mmHg 61%
    11:00 +21°C° 0 mm 1 mps 732 mmHg 59%
    12:00 +22°C° 0 mm 1 mps 732 mmHg 57%
    13:00 +23°C° 0 mm 1 mps 732 mmHg 55%
    14:00 +23°C° 0 mm 1 mps 731 mmHg 55%
    15:00 +23°C° 0 mm 1 mps 731 mmHg 55%
    16:00 +23°C° 0 mm 1 mps 731 mmHg 56%
    17:00 +21°C° 0 mm 1 mps 731 mmHg 62%
    18:00 +18°C° 0 mm 0 mps 731 mmHg 68%
    19:00 +17°C° 0 mm 0 mps 731 mmHg 74%
    20:00 +16°C° 0 mm 1 mps 731 mmHg 77%
    21:00 +15°C° 0 mm 1 mps 731 mmHg 81%
    22:00 +14°C° 0 mm 1 mps 732 mmHg 84%
    23:00 +13°C° 0 mm 1 mps 732 mmHg 86%

    Tomorrow, 25 May, Saturday

    Time Temperature Precipitation Wind Pressure Humidity
    00:00 +13°C° 0 mm 1 mps 732 mmHg 87%
    01:00 +12°C° 0 mm 1 mps 732 mmHg 89%
    02:00 +11°C° 0 mm 0 mps 731 mmHg 89%
    03:00 +10°C° 0 mm 0 mps 731 mmHg 90%
    04:00 +10°C° 0 mm 0 mps 731 mmHg 90%
    05:00 +12°C° 0 mm 0 mps 731 mmHg 86%
    06:00 +13°C° 0 mm 0 mps 731 mmHg 81%
    07:00 +15°C° 0 mm 0 mps 731 mmHg 77%
    08:00 +17°C° 0 mm 0 mps 731 mmHg 73%
    09:00 +18°C° 0 mm 0 mps 731 mmHg 69%
    10:00 +22°C° 0 mm 1 mps 731 mmHg 66%
    11:00 +23°C° 0.1 mm 1 mps 731 mmHg 62%
    12:00 +23°C° 0.1 mm 1 mps 731 mmHg 59%
    13:00 +24°C° 0.1 mm 1 mps 731 mmHg 56%
    14:00 +24°C° 0 mm 1 mps 731 mmHg 56%
    15:00 +24°C° 0 mm 1 mps 731 mmHg 55%
    16:00 +22°C° 0 mm 0 mps 730 mmHg 55%
    17:00 +22°C° 0.1 mm 1 mps 730 mmHg 64%
    18:00 +20°C° 0.1 mm 1 mps 730 mmHg 73%
    19:00 +18°C° 0.1 mm 2 mps 730 mmHg 83%
    20:00 +18°C° 0 mm 1 mps 731 mmHg 85%
    21:00 +16°C° 0 mm 1 mps 731 mmHg 87%
    22:00 +15°C° 0 mm 1 mps 731 mmHg 89%
    23:00 +14°C° 0 mm 1 mps 731 mmHg 91%

    Day after tomorrow, 26 May, Sunday

    Time Temperature Precipitation Wind Pressure Humidity
    00:00 +14°C° 0 mm 2 mps 731 mmHg 93%
    01:00 +13°C° 0 mm 2 mps 731 mmHg 96%
    02:00 +13°C° 0 mm 2 mps 731 mmHg 96%
    03:00 +13°C° 0 mm 2 mps 731 mmHg 96%
    04:00 +13°C° 0 mm 2 mps 731 mmHg 97%
    05:00 +14°C° 0 mm 2 mps 732 mmHg 95%
    06:00 +14°C° 0 mm 2 mps 732 mmHg 93%
    07:00 +15°C° 0 mm 2 mps 732 mmHg 91%
    08:00 +16°C° 0 mm 2 mps 732 mmHg 87%
    09:00 +17°C° 0 mm 2 mps 732 mmHg 83%
    10:00 +18°C° 0 mm 2 mps 732 mmHg 79%
    11:00 +19°C° 0.1 mm 2 mps 732 mmHg 74%
    12:00 +20°C° 0.1 mm 2 mps 732 mmHg 69%
    13:00 +21°C° 0.1 mm 2 mps 732 mmHg 64%
    14:00 +21°C° 0 mm 2 mps 731 mmHg 63%
    15:00 +23°C° 0 mm 2 mps 731 mmHg 62%
    16:00 +23°C° 0 mm 2 mps 731 mmHg 60%
    17:00 +21°C° 0 mm 2 mps 731 mmHg 66%
    18:00 +21°C° 0 mm 1 mps 731 mmHg 71%
    19:00 +20°C° 0 mm 1 mps 731 mmHg 77%
    20:00 +18°C° 0 mm 1 mps 731 mmHg 79%
    21:00 +15°C° 0 mm 0 mps 731 mmHg 82%
    22:00 +14°C° 0 mm 0 mps 732 mmHg 84%
    23:00 +13°C° 0 mm 0 mps 731 mmHg 85%

    27 May, Monday

    Time Temperature Precipitation Wind Pressure Humidity
    00:00 +13°C° 0 mm 0 mps 731 mmHg 87%
    01:00 +13°C° 0 mm 0 mps 731 mmHg 88%
    02:00 +12°C° 0 mm 0 mps 731 mmHg 88%
    03:00 +12°C° 0 mm 0 mps 731 mmHg 89%
    04:00 +12°C° 0 mm 0 mps 730 mmHg 90%
    05:00 +13°C° 0 mm 0 mps 730 mmHg 87%
    06:00 +14°C° 0 mm 0 mps 731 mmHg 85%
    07:00 +15°C° 0 mm 0 mps 731 mmHg 82%
    08:00 +16°C° 0.1 mm 0 mps 731 mmHg 79%
    09:00 +18°C° 0.1 mm 0 mps 731 mmHg 76%
    10:00 +19°C° 0.1 mm 0 mps 731 mmHg 72%
    11:00 +22°C° 0.1 mm 1 mps 730 mmHg 70%
    12:00 +22°C° 0.1 mm 1 mps 730 mmHg 68%
    13:00 +23°C° 0.1 mm 1 mps 730 mmHg 66%
    14:00 +22°C° 0.3 mm 1 mps 729 mmHg 69%
    15:00 +22°C° 0.3 mm 1 mps 729 mmHg 73%
    16:00 +21°C° 0.3 mm 2 mps 728 mmHg 76%
    17:00 +20°C° 0.3 mm 2 mps 728 mmHg 81%
    18:00 +20°C° 0.3 mm 1 mps 728 mmHg 85%
    19:00 +19°C° 0.3 mm 1 mps 728 mmHg 90%
    20:00 +18°C° 0.3 mm 1 mps 728 mmHg 91%
    21:00 +18°C° 0.3 mm 1 mps 728 mmHg 92%
    22:00 +16°C° 0.3 mm 1 mps 728 mmHg 94%
    23:00 +16°C° 0.9 mm 1 mps 727 mmHg 94%

    28 May, Tuesday

    Time Temperature Precipitation Wind Pressure Humidity
    00:00 +16°C° 0.9 mm 1 mps 727 mmHg 95%
    01:00 +16°C° 0.9 mm 1 mps 727 mmHg 95%
    02:00 +15°C° 1.7 mm 1 mps 726 mmHg 96%
    03:00 +15°C° 1.7 mm 1 mps 726 mmHg 96%
    04:00 +15°C° 1.7 mm 1 mps 726 mmHg 96%
    05:00 +15°C° 2.3 mm 1 mps 726 mmHg 96%
    06:00 +15°C° 2.3 mm 1 mps 725 mmHg 96%
    07:00 +15°C° 2.3 mm 2 mps 725 mmHg 97%
    08:00 +15°C° 1.4 mm 2 mps 725 mmHg 96%
    09:00 +15°C° 1.4 mm 2 mps 725 mmHg 96%
    10:00 +15°C° 1.4 mm 2 mps 725 mmHg 96%
    11:00 +15°C° 0.7 mm 2 mps 725 mmHg 95%
    12:00 +16°C° 0.7 mm 2 mps 725 mmHg 94%
    13:00 +16°C° 0.7 mm 2 mps 724 mmHg 94%
    14:00 +16°C° 0.2 mm 2 mps 725 mmHg 91%
    15:00 +17°C° 0.2 mm 2 mps 725 mmHg 89%
    16:00 +17°C° 0.2 mm 2 mps 725 mmHg 87%
    17:00 +17°C° 0.3 mm 2 mps 725 mmHg 89%
    18:00 +16°C° 0.3 mm 2 mps 725 mmHg 92%
    19:00 +16°C° 0.3 mm 2 mps 725 mmHg 94%
    20:00 +15°C° 0.1 mm 1 mps 725 mmHg 95%
    21:00 +15°C° 0.1 mm 1 mps 726 mmHg 95%
    22:00 +14°C° 0.1 mm 1 mps 726 mmHg 96%
    23:00 +14°C° 0 mm 1 mps 726 mmHg 97%

    29 May, Wednesday

    Time Temperature Precipitation Wind Pressure Humidity
    00:00 +13°C° 0 mm 1 mps 726 mmHg 97%
    01:00 +13°C° 0 mm 1 mps 725 mmHg 97%
    02:00 +12°C° 0.1 mm 0 mps 725 mmHg 97%
    03:00 +12°C° 0.1 mm 0 mps 725 mmHg 97%
    04:00 +12°C° 0.1 mm 0 mps 725 mmHg 97%
    05:00 +13°C° 0.6 mm 1 mps 726 mmHg 97%
    06:00 +14°C° 0.6 mm 1 mps 726 mmHg 96%
    07:00 +14°C° 0.6 mm 2 mps 726 mmHg 96%
    08:00 +14°C° 0.5 mm 2 mps 726 mmHg 95%
    09:00 +14°C° 0.5 mm 2 mps 727 mmHg 94%
    10:00 +12°C° 0.5 mm 3 mps 727 mmHg 94%
    11:00 +14°C° 0 mm 3 mps 727 mmHg 87%
    12:00 +16°C° 0 mm 3 mps 727 mmHg 80%
    13:00 +18°C° 0 mm 3 mps 728 mmHg 73%
    14:00 +17°C° 0 mm 4 mps 728 mmHg 75%
    15:00 +17°C° 0 mm 4 mps 729 mmHg 77%
    16:00 +17°C° 0 mm 4 mps 729 mmHg 79%
    17:00 +15°C° 0 mm 4 mps 730 mmHg 82%
    18:00 +14°C° 0 mm 4 mps 730 mmHg 84%
    19:00 +13°C° 0 mm 4 mps 731 mmHg 86%
    20:00 +13°C° 0 mm 3 mps 732 mmHg 86%
    21:00 +12°C° 0 mm 3 mps 732 mmHg 87%
    22:00 +12°C° 0 mm 3 mps 733 mmHg 87%
    23:00 +12°C° 0 mm 3 mps 733 mmHg 89%
    Show more